Location: Unspecified
(49.2170°N, 0.0000°E)
Time: 04:43:46
(UTC+00:00)

S-56A Canister/Altair - Pass Details

Date: 26 January 2021
Orbit: 631 x 2501 km, 38.9° (Epoch: 02 March)

Event Time Altitude Azimuth Distance (km) Brightness Sun altitude
Exits shadow 04:09:00 15° 137° (SE) 1,839 9.7 -34.1°
Drops below altitude 10° 04:10:11 10° 127° (SE) 2,212 10.3 -33.9°
Sets 04:13:15 0° 114° (ESE) 3,328 11.5 -33.4°
